Theta_e
309 310 310 310 311 312 312 315 319 324 325 325 325 324 324 323 323 323 322 322 322 321
308 308 310 312 313 313 314 314 314 315 316 319 324 325 325 323 323 322 322 322 323 322
306 307 308 308 308 310 313 315 314 315 315 315 316 317 319 320 321 321 321 322 321 322
300 303 305 305 306 307 308 310 312 312 311 310 309 309 310 311 314 315 317 319 319 319
297 298 299 300 302 304 305 306 308 310 308 306 304 304 304 306 309 310 310 311 312 311
295 295 295 297 298 300 302 302 303 304 302 299 297 297 299 301 306 307 307 305 304 302
293 294 294 295 296 297 298 298 298 297 296 293 292 292 294 296 302 303 304 303 301 299
292 293 293 293 294 295 295 295 295 295 293 291 291 291 292 294 299 298 298 297 298 297
290 291 291 291 291 292 292 292 292 292 291 289 290 290 292 293 296 294 292 291 292 293
286 287 288 289 289 289 289 290 289 289 289 288 288 291 291 290 291 290 289 288 288 289
283 284 284 285 286 287 287 287 287 287 287 287 287 289 290 289 288 288 287 287 286 286
282 282 282 282 283 284 285 286 285 285 285 285 285 288 288 286 285 285 284 285 285 286
281 281 281 281 282 283 282 283 283 284 283 282 283 286 286 285 283 282 281 283 283 284
280 280 280 280 281 282 282 282 281 282 282 282 281 282 284 285 282 281 280 280 281 281
Wind_Speed
11 5 6 4 2 4 5 6 10 6 4 4 4 4 4 3 5 5 6 9 8 6
8 11 8 11 7 4 5 6 8 8 9 10 8 4 4 3 5 6 7 7 8 7
9 10 8 7 10 12 8 7 4 3 3 5 5 8 6 4 4 4 5 6 7 7
9 8 7 7 8 5 7 8 9 9 11 9 9 9 7 8 9 9 7 6 7 8
7 7 7 8 8 9 9 9 8 7 7 8 10 10 11 9 8 8 8 8 8 9
10 10 9 8 7 7 7 8 8 9 9 10 9 9 8 8 8 7 8 8 8 9
9 8 8 8 8 8 7 8 7 8 9 8 8 8 8 7 7 8 7 7 7 7
9 9 8 9 8 8 9 8 9 8 9 9 10 8 8 7 7 7 7 7 6 6
8 9 9 10 10 10 10 10 10 9 10 11 8 19 17 10 7 7 7 7 7 6
8 8 9 7 9 9 9 8 9 8 7 10 11 21 18 14 7 7 7 8 7 7
6 6 5 5 6 6 5 6 6 7 7 6 9 19 19 14 8 7 7 7 8 7
5 6 6 8 7 5 4 4 4 3 5 6 6 18 19 11 6 6 5 5 5 7
5 5 6 5 5 4 4 4 4 5 5 5 6 17 20 16 6 8 7 7 6 11
4 3 4 3 3 4 4 4 5 5 5 6 6 8 18 18 6 7 7 6 8 7
Wind_Direction
27 32 34 38 53 26 3 13 5 323 282 282 270 264 249 233 242 240 240 248 254 244
23 27 25 359 25 26 21 19 19 348 3 350 360 325 289 251 243 244 244 243 244 245
21 30 22 349 22 18 356 15 8 6 327 358 355 3 335 302 300 272 272 266 255 253
26 28 21 11 21 347 17 16 23 24 28 23 28 28 353 8 6 348 337 330 309 303
25 20 22 25 10 14 27 28 17 40 38 34 26 18 9 4 358 3 359 356 353 359
21 19 14 14 13 21 37 41 36 44 41 38 27 16 1 354 359 2 29 28 29 26
17 17 8 3 12 20 23 41 44 48 46 37 24 13 357 351 5 16 30 29 37 33
8 11 19 15 16 20 30 29 29 40 35 24 27 5 353 351 14 22 18 19 24 36
17 13 16 13 11 18 24 26 30 30 38 28 22 4 7 11 20 25 28 14 6 12
12 18 16 12 19 21 21 26 31 28 36 34 21 15 14 15 28 31 29 22 11 6
17 30 13 26 26 15 7 24 20 23 25 39 24 23 18 12 15 24 20 18 13 9
9 20 18 24 5 11 12 33 41 36 41 38 29 26 25 22 14 15 3 357 11 6
15 26 25 12 4 357 5 1 12 42 38 32 31 22 19 20 5 0 352 349 1 0
14 20 25 9 9 6 12 19 21 26 25 21 25 19 17 13 7 0 348 348 347 343